Back to catalog

COSMOS 375 DEB

AliveLEO
NORAD 4942·DEBRIS·🇷🇺 Russia

Launched Oct 30, 1970 from Baikonur Cosmodrome

Loading…

Next Passes (next 24 hours)

TLE

FreshSource: Space-Track

Epoch: Sep 14, 2026, 14:30 UTC

1 04942U 70091AK  26257.60477716 -.00000042  00000-0  31751-4 0  9994
2 04942  63.0968 113.8321 0816264 261.1997  89.5818 12.95849718608663

Track COSMOS 375 DEB in real time with AllMySat

Download on the App Store